Flag for Myanmar Weather past 2 weeks in Yangon, Myanmar

Now
73 °F

Passing clouds.


Feels Like: 75 °F
Forecast: 68 / 88 °F
Wind: 5 mph from North

Location: Rangoon Airport

Current Time: Dec 20, 2014 at 10:23:12 PM

Latest Report: Dec 20, 2014 at 10:00 PM


Visibility: 4 mi

Pressure: 29.95 "Hg

Humidity: 74%

Dew point: 64 °F

Location of YangonLocation

Historic Weather in Yangon — Graph

°F

Yangon temperature yesterday

Maximum temperature yesterday: 88 °F (at 2:00 PM)
Minimum temperature yesterday: 70 °F (at 4:30 AM)
Average temperature yesterday: 79 °F

Past Weeks' High & Low Weather Summary

 TemperatureHumidityPressure
High102 °F (Dec 16, 7:00 PM)100% (Dec 8, 6:00 AM)30.07 "Hg (Dec 8, 6:00 AM)
Low64 °F (Dec 20, 6:00 AM)38% (Dec 13, 1:00 PM)29.80 "Hg (Dec 7, 3:00 PM)
Average82 °F73%29.93 "Hg
* Reported Dec 5 8:30 PM — Dec 20 9:00 PM, Yangon, Weather by CustomWeather, © 2014

Note: Actual official high and low records may vary slightly from our data, if they occured in-between our weather recording intervals... More about our weather records

Advertising

Yangon weather history for previous 24 hours

 ConditionsComfort  
Time TempWeatherWind HumidityBarometerVisibility
9:00 PM
Dec 20
75 °FPassing clouds.5 mph74%N/A4 mi
8:30 PM77 °FPassing clouds.5 mph51%29.92 "Hg4 mi
8:00 PM77 °FPassing clouds.3 mph51%29.92 "Hg4 mi
7:30 PM77 °FHaze.3 mph51%29.92 "Hg4 mi
6:30 PM82 °FHaze.3 mph62%29.89 "Hg4 mi
6:00 PM82 °FHaze.3 mph62%29.89 "Hg4 mi
5:30 PM84 °FPassing clouds.3 mph70%29.89 "Hg5 mi
5:00 PM86 °FPassing clouds.5 mph70%29.89 "Hg5 mi
4:30 PM88 °FPassing clouds.5 mph66%29.86 "Hg6 mi
4:00 PM88 °FPassing clouds.3 mph66%29.86 "Hg6 mi
3:30 PM88 °FPassing clouds.6 mph66%29.86 "Hg6 mi
3:00 PM88 °FPassing clouds.6 mph66%29.86 "Hg6 mi
2:30 PM88 °FPassing clouds.5 mph66%29.86 "Hg6 mi
2:00 PM88 °FPassing clouds.3 mph66%29.89 "Hg6 mi
1:30 PM86 °FPassing clouds.6 mph70%29.89 "Hg6 mi
1:00 PM86 °FPassing clouds.6 mph70%29.92 "Hg5 mi
12:30 PM84 °FPassing clouds.6 mph70%29.92 "Hg5 mi
12:00 PM82 °FPassing clouds.7 mph74%29.95 "Hg5 mi
11:30 AM81 °FPassing clouds.7 mph70%29.98 "Hg5 mi
11:00 AM81 °FClear.6 mph70%29.98 "Hg5 mi
10:30 AM77 °FClear.5 mph61%30.01 "Hg4 mi
9:30 AM72 °FClear.5 mph83%30.01 "Hg4 mi
9:00 AM70 °FClear.2 mph73%30.01 "Hg4 mi
8:30 AM66 °FClear.2 mph88%30.01 "Hg4 mi
8:00 AM68 °FClear.2 mph83%29.98 "Hg4 mi
7:30 AM66 °FClear.2 mph83%29.98 "Hg4 mi
6:30 AM64 °FClear.2 mph88%29.95 "Hg4 mi
6:00 AM64 °FClear.2 mph88%29.95 "Hg4 mi
5:30 AM66 °FClear.2 mph83%29.95 "Hg4 mi
5:00 AM66 °FSnow. Overcast.5 mph83%29.95 "Hg4 mi
4:30 AM66 °FSnow. Overcast.5 mph83%29.95 "Hg4 mi
12:30 AM73 °FClear.No wind74%30.01 "Hg4 mi
12:00 AM73 °FClear.No wind74%30.01 "Hg4 mi
11:30 PM
Dec 19
73 °FClear.No wind74%30.01 "Hg4 mi
11:00 PM73 °FClear.No wind74%30.01 "Hg4 mi
10:30 PM77 °FHaze.2 mph51%30.01 "Hg4 mi
10:00 PM75 °FClear.No wind65%30.01 "Hg4 mi
Weather by CustomWeather, © 2014

See weather overviewHow to use our weather pages